Regional Weather Roundup
Issued by NWS

Home | Current Version | Previous Version | Graphics & Text | Print | Product List | Glossary On
Versions: 1 2 3 4 5 6 7 8 9 10 11 12 13 14 15 16 17 18 19 20 21 22 23 24 25 26 27 28 29 30 31 32 33 34 35 36 37 38 39 40 41 42 43 44 45 46 47 48 49 50
000
ASUS45 KSLC 221110
RWRUT

UTAH REGIONAL WEATHER ROUNDUP
NATIONAL WEATHER SERVICE SALT LAKE CITY UT
400 AM MST SAT NOV 22 2014

UTZ001>011-023>025-221200-

NORTHERN UTAH

CITY           SKY/WX    TMP DP  RH WIND       PRES   REMARKS
BRIGHAM CITY   CLOUDY    34  26  74 CALM      29.96S
HILL AFB       MOCLDY    42  24  48 S15       29.95F
LOGAN          CLOUDY    36  27  69 N10       29.93S WCI  28
OGDEN          CLOUDY    41  25  53 S7        29.94F
PROVO AIRPORT  MOCLDY    27  19  74 E3        30.00R
SALT LAKE CITY MOCLDY    43  25  49 E9        29.95S
VERNAL         PTCLDY    24  15  68 NW3       30.02F
WENDOVER       MOCLDY    28  19  69 E6        29.95F WCI  22
HEBER CITY     PTCLDY    21  18  86 SE3       29.99R
WEST JORDAN    CLOUDY    43  28  56 S12       29.97S

$$

UTZ012>022-026-027-221200-

SOUTHERN/CENTRAL UTAH

CITY           SKY/WX    TMP DP  RH WIND       PRES   REMARKS
BLANDING       CLEAR     31  18  60 CALM      30.18S
BRYCE CANYON   PTCLDY    20  15  81 W6        30.12S WCI  12
CEDAR CITY     PTCLDY    36  23  59 SE8       30.06F WCI  30
DELTA          MOCLDY    37  25  61 S9        30.01R WCI  30
MILFORD        PTCLDY    35  23  61 SW20      30.02F WCI  24
MOAB/CYNLANDS  CLEAR     23  13  65 SW3       30.07S
PRICE          PTCLDY    26  14  60 NE5       30.04F WCI  20
ST GEORGE      MOSUNNY   39  19  45 S5        30.10F
KANAB          PTCLDY    25  14  63 NE6       30.15F WCI  18

$$

REGIONAL REPORTS     COLORADO/ARIZONA

CITY           SKY/WX    TMP DP  RH WIND       PRES   REMARKS
CRAIG, CO      CLEAR     16  11  80 CALM      30.03F
GRAND JUNCTION CLEAR     22  15  75 SE6       30.09F WCI  14
RIFLE          CLEAR     20  16  84 CALM      30.11F
MONTROSE       CLEAR     23  17  78 SE7       30.13F WCI  15
CORTEZ         CLEAR     19  16  88 E6        30.13S WCI  11
PAGE, AZ       NOT AVBL
GRAND CANYON   MOCLDY    14   8  77 E3        30.15S
KINGMAN        CLEAR     35  19  52 S3        30.08S
FLAGSTAFF      PTCLDY    18  12  77 CALM      30.14S

$$

REGIONAL REPORTS    NEVADA/IDAHO/WYOMING

CITY           SKY/WX    TMP DP  RH WIND       PRES   REMARKS
LAS VEGAS, NV  CLEAR     49  29  46 S8        30.01F
ELY            CLOUDY    32  20  61 SE7       30.07S WCI  26
ELKO           CLOUDY    42  32  67 SW9       29.97F
POCATELLO, ID  CLOUDY    42  29  59 S15       29.83F
BURLEY         LGT RAIN  45  32  60 S20G30    29.79F
EVANSTON, WY   PTCLDY    33  22  63 SW22      29.92F WCI  21
ROCK SPRINGS   CLOUDY    34  17  50 W20       29.89F WCI  23
KEMMERER       PTCLDY    28  21  74 SW3       29.91R

$$



USA.gov is the U.S. government's official web portal to all federal, state and local government web resources and services.